Location: Unspecified
(0.0000°N, 0.0000°E)
Time: 01:28:06
(UTC+00:00)

SR - Pass Details

Date: 23 November 2019
Orbit: 573 x 882 km, 66.7° (Epoch: 11 December)

Event Time Altitude Azimuth Distance (km) Brightness Sun altitude
Rises 01:15:06 0° 311° (NW) 3,324 - -60.3°
Reaches altitude 10° 01:18:24 10° 292° (WNW) 2,338 - -59.7°
Maximum altitude 01:21:50 17° 252° (WSW) 1,821 - -59.1°
Drops below altitude 10° 01:25:07 10° 211° (SSW) 2,209 - -58.5°
Sets 01:28:08 0° 191° (S) 3,065 - -57.9°
